This is the latest recevied weather packets stored in our database for station/object WA4IKQ. If no packets are shown the sender has not sent any weather packets the latest 10 day(s).
| Time | Temp. | Humidity | Pressure | Rain* | Wind** | Luminosity | Snow |
|---|---|---|---|---|---|---|---|
| 1777675106 | 32.22° C | 38% | 1008.6 hPa | 0 mm | 2.68 m/s, 203° | - | - |
| 1777675004 | 32.78° C | 38% | 1008.6 hPa | 0 mm | 0 m/s | - | - |
| 1777674810 | 32.78° C | 38% | 1008.6 hPa | 0 mm | 0 m/s | - | - |
| 1777674321 | 32.78° C | 38% | 1008.4 hPa | 0 mm | 1.34 m/s, 219° | - | - |
| 1777674282 | 32.78° C | 38% | 1008.4 hPa | 0 mm | 1.34 m/s, 219° | - | - |
| 1777674236 | 32.78° C | 38% | 1008.4 hPa | 0 mm | 1.34 m/s, 219° | - | - |
| 1777674203 | 32.78° C | 38% | 1008.4 hPa | 0 mm | 1.34 m/s, 219° | - | - |
| 1777673714 | 32.78° C | 37% | 1008.4 hPa | 0 mm | 1.79 m/s, 160° | - | - |
| 1777673658 | 32.78° C | 37% | 1008.4 hPa | 0 mm | 1.79 m/s, 160° | - | - |
| 1777673603 | 32.78° C | 37% | 1008.4 hPa | 0 mm | 1.79 m/s, 160° | - | - |
| 1777673422 | 32.78° C | 38% | 1008.4 hPa | 0 mm | 1.34 m/s, 177° | - | - |
| 1777673119 | 33.33° C | 38% | 1008.5 hPa | 0 mm | 1.79 m/s, 183° | - | - |
| 1777673004 | 33.33° C | 38% | 1008.5 hPa | 0 mm | 1.79 m/s, 183° | - | - |
| 1777672773 | 32.78° C | 39% | 1008.5 hPa | 0 mm | 3.58 m/s, 211° | - | - |
| 1777672704 | 32.78° C | 39% | 1008.5 hPa | 0 mm | 3.58 m/s, 211° | - | - |
| 1777672513 | 32.78° C | 39% | 1008.5 hPa | 0 mm | 0.45 m/s, 174° | - | - |
| 1777672404 | 32.78° C | 39% | 1008.5 hPa | 0 mm | 0.45 m/s, 174° | - | - |
| 1777671871 | 32.78° C | 40% | 1008.6 hPa | 0 mm | 1.79 m/s, 271° | - | - |
| 1777671303 | 32.78° C | 39% | 1008.6 hPa | 0 mm | 0 m/s | - | - |
| 1777671270 | 32.78° C | 39% | 1008.6 hPa | 0 mm | 0 m/s | - | - |
| 1777671202 | 32.78° C | 39% | 1008.6 hPa | 0 mm | 0 m/s | - | - |
| 1777670976 | 32.78° C | 39% | 1008.5 hPa | 0 mm | 1.79 m/s, 221° | - | - |
| 1777670903 | 32.78° C | 39% | 1008.5 hPa | 0 mm | 1.79 m/s, 221° | - | - |
| 1777670701 | 32.78° C | 39% | 1008.4 hPa | 0 mm | 1.79 m/s, 195° | - | - |
| 1777670610 | 32.78° C | 39% | 1008.4 hPa | 0 mm | 1.79 m/s, 195° | - | - |
* Rain latest hour (hover to see other rain measurements)
** Current wind speed in m/s (hover to see current wind gust speed)